FLOCK 4S-18 (47496 NORAD) Tracking and Keplerian Element Data

This shows tracking and keplerian element data for the satellite.

Feedback or suggestion? Click here.




ElementValue
Catalog47496
NameFLOCK 4S-18
Epoch Orbit1168
Epoch Day99.88844759
Epoch Year2021
RAAN162.3637
Inclination97.5032
Eccentricity0.001023
Argument of Perigee344.911
Mean Anonmoly15.1814
Mean Motion15.12560584
Decay Rate6.18E-06
L11 47496U 21006CM 21099.88844759 .00000618 00000-0 39106-4 0 9991
L22 47496 97.5032 162.3637 0010230 344.9110 15.1814 15.12560584 11687

Live tracking and technical data element details for FLOCK 4S-18 (NORAD 47496). FLOCK 4S-18 can be tracked NOW for your location showing map with azimuth and elevation plus other details from your city location.

Track the satellite on the map from your city or location and see movement details for azimuth, elevation, latitude, longitude, range, height, and movement on the map or in text.







IsCatalogInMostPopularTable: catalog: 47496, numindb: 15
Update: records affected: 1



GetName: 47496 FLOCK 4S-18

Hit Count: updated at: Sat, 10 Apr 2021 19:38:32 GMT